User: anonymous   Login
Location: Lecco
(45.8566°N, 9.3977°E)
Time: 10:54:10
(UTC+02:00)
Language:

S-56A Canister/Altair - Orbit

View from above orbital plane
View from above orbital plane
View from above satellite
View from above satellite

Ground track
Ground track

The orbit data is extracted from the following two-line orbital elements,

1    82U 61004B   19198.81216131 +.00000061 +00000-0 +73929-4 0  9993
2    82 038.8668 001.1802 1175707 263.6584 082.9206 12.26043035766614
Epoch (UTC): 17 July 2019 19:29:30
Eccentricity: 0.1175707
inclination: 38.8668°
perigee height: 632 km
apogee height: 2500 km
right ascension of ascending node: 1.1802°
argument of perigee: 263.6584°
revolutions per day: 12.26043035
mean anomaly at epoch: 82.9206°
orbit number at epoch: 76661

The dashed part of the orbit path shows where the satellite is in the earth's shadow,  

DLR